Hlavní strana
METAR-TAF:

METAR-TAF

Letiště :

Crawfordsville, Indiana, Spojené státy americké

zeměpisná šířka: 39-58-34N, zeměpisná délka: 086-55-09W, výška: 244 m

Aktuální stav počasí

Zpráva byla vytvořena před 10 minutami, v 14:15 UTC
Jihojihozápadní vítr 7 kt
Teplota 3°C
Vlhkost vzduchu 75%
Tlak 1016 hPa
Viditelnost: 16.1 km
Jasno

METAR: KCFJ 031415Z AUTO 21007KT 10SM CLR 03/M01 A3000 RMK AO2 T00251011

Čas: 09:25 (14:25 UTC)


TAF: chybějící

Stav a předpovědi počasí z více než 4 000 letišť (zprávy METAR a TAF).

Červené a žluté tečky na mapě představují dostupné meteorologické stanice.

Když kurzor umístíte na tečku, zobrazí se název stanice.

Pak kliknutím zobrazíte stav a předpověď počasí.

Chcete-li změnit mapu, kliknutím na zelené tlačítko se znaménkem +mapu přiblížíte, kliknutím na zelené tlačítko se znaménkem – mapu oddálíte a kliknutím na zelené šipky přejdete na sousední mapy.


METAR-TAF: